Overview Statistics Trail Chart Weather Telemetry Raw packets
 

This is the latest recevied weather packets stored in our database for station/object JH7UAX-10. If no packets are shown the sender has not sent any weather packets the latest 10 day(s).

<< 14 15 16 17 18 19 20 >>
Time Temp. Humidity Pressure Rain* Wind** Luminosity Snow
1788148767 26.11° C 72% 1027.5 hPa 0 mm - - -
1788147854 26.11° C 72% 1027.5 hPa 0 mm - - -
1788146961 25.56° C 75% 1027.5 hPa 0 mm - - -
1788146054 25.56° C 73% 1027.6 hPa 0 mm - - -
1788145160 25.56° C 74% 1027.6 hPa 0 mm - - -
1788144254 25.56° C 74% 1027.5 hPa 0 mm - - -
1788143354 25° C 74% 1027.7 hPa 0 mm - - -
1788142453 25° C 77% 1027.7 hPa 0 mm - - -
1788141554 24.44° C 76% 1027.6 hPa 0 mm - - -
1788139756 24.44° C 76% 1027.9 hPa 0 mm - - -
1788138853 23.89° C 77% 1027.9 hPa 0 mm - - -
1788137954 23.89° C 76% 1027.8 hPa 0 mm - - -
1788137054 24.44° C 77% 1027.7 hPa 0 mm - - -
1788136169 23.33° C 79% 1027.9 hPa 0 mm - - -
1788135254 23.33° C 79% 1027.7 hPa 0 mm - - -
1788134355 22.78° C 80% 1027.6 hPa 0 mm - - -
1788133454 22.78° C 80% 1027.7 hPa 0 mm - - -
1788132554 22.78° C 79% 1027.5 hPa 0 mm - - -
1788131655 23.33° C 79% 1027.3 hPa 0 mm - - -
1788130754 22.78° C 79% 1027.5 hPa 0 mm - - -
1788129854 22.78° C 80% 1027.2 hPa 0 mm - - -
1788128054 22.78° C 81% 1027.2 hPa 0 mm - - -
1788127154 22.22° C 83% 1027.3 hPa 0 mm - - -
1788126254 21.11° C 85% 1027.3 hPa 0 mm - - -
1788125354 20.56° C 86% 1027.2 hPa 0 mm - - -

* Rain latest hour (hover to see other rain measurements)
** Current wind speed in m/s (hover to see current wind gust speed)